sat.trackr.live / text

‹ back to catalog

STARLINK-35682

NORAD 66467 · 2025-262M

PAYLOAD ACTIVE UNKNOWN

§ Identity

Operator
Country
US
Launch date
2025-11-15
Launch site
AFETR
Launch vehicle
Mass (kg)
RCS (m²)

Purposes: comms

External: N2YO · Heavens-Above · Gunter

§ Orbital elements

Epoch: 2026-05-24T22:41:21.707232Z

Period
94.27 min
Inclination
43.0008°
Eccentricity
0.0001797
Mean motion
15.27567551 rev/d
Perigee alt
481.9 km
Apogee alt
484.3 km
Semi-major
6,861.2 km
B*
4.7189e-4
RAAN
225.9633°
Arg perigee
263.4245°
Mean anomaly
96.6402°
Rev number
3,056

§ Raw data

STARLINK-356821 66467U 25262M   26144.94539013  .00012741  00000+0  47189-3 0  99932 66467  43.0008 225.9633 0001797 263.4245  96.6402 15.27567551 30561

JSON: /api/v1/satellites/66467 · /tle

For live sub-satellite position, see the globe view (requires WebGL).

§ Visibility from observer

Set your observer location to see the next 7 days of passes ≥ 10°. The values pass through the URL so the page stays shareable.

No JS? Fill the form by hand. The geolocation button needs JavaScript.